Year,Month,Day,Hour,Minute,Value (Times are PST for temperature in C)
2009,10,05,00,00,13.50
2009,10,05,00,01,13.50
2009,10,05,00,02,13.50
2009,10,05,00,03,13.50
2009,10,05,00,04,13.50
2009,10,05,00,05,13.50
2009,10,05,00,06,13.50
2009,10,05,00,07,13.50
2009,10,05,00,08,13.50
2009,10,05,00,09,13.40
2009,10,05,00,10,13.40
2009,10,05,00,11,13.40
2009,10,05,00,12,13.40
2009,10,05,00,13,13.40
2009,10,05,00,14,13.40
2009,10,05,00,15,13.40
2009,10,05,00,16,13.40
2009,10,05,00,17,13.50
2009,10,05,00,18,13.50
2009,10,05,00,19,13.40
2009,10,05,00,20,13.40
2009,10,05,00,21,13.30
2009,10,05,00,22,13.30
2009,10,05,00,23,13.30
2009,10,05,00,24,13.30
2009,10,05,00,25,13.20
2009,10,05,00,26,13.20
2009,10,05,00,27,13.10
2009,10,05,00,28,13.10
2009,10,05,00,29,13.10
2009,10,05,00,30,13.10
2009,10,05,00,31,13.00
2009,10,05,00,32,13.00
2009,10,05,00,33,12.90
2009,10,05,00,34,12.90
2009,10,05,00,35,12.80
2009,10,05,00,36,12.80
2009,10,05,00,37,12.80
2009,10,05,00,38,12.70
2009,10,05,00,39,12.60
2009,10,05,00,40,12.60
2009,10,05,00,41,12.50
2009,10,05,00,42,12.50
2009,10,05,00,43,12.40
2009,10,05,00,44,12.40
2009,10,05,00,45,12.40
2009,10,05,00,46,12.40
2009,10,05,00,47,12.40
2009,10,05,00,48,12.40
2009,10,05,00,49,12.30
2009,10,05,00,50,12.30
2009,10,05,00,51,12.30
2009,10,05,00,52,12.30
2009,10,05,00,53,12.30
2009,10,05,00,54,12.30
2009,10,05,00,55,12.30
2009,10,05,00,56,12.30
2009,10,05,00,57,12.30
2009,10,05,00,58,12.30
2009,10,05,00,59,12.30
2009,10,05,01,00,12.30
2009,10,05,01,01,12.30
2009,10,05,01,02,12.30
2009,10,05,01,03,12.30
2009,10,05,01,04,12.30
2009,10,05,01,05,12.30
2009,10,05,01,06,12.30
2009,10,05,01,07,12.30
2009,10,05,01,08,12.30
2009,10,05,01,09,12.30
2009,10,05,01,10,12.40
2009,10,05,01,11,12.40
2009,10,05,01,12,12.40
2009,10,05,01,13,12.50
2009,10,05,01,14,12.50
2009,10,05,01,15,12.60
2009,10,05,01,16,12.60
2009,10,05,01,17,12.60
2009,10,05,01,18,12.60
2009,10,05,01,19,12.60
2009,10,05,01,20,12.60
2009,10,05,01,21,12.60
2009,10,05,01,22,12.60
2009,10,05,01,23,12.60
2009,10,05,01,24,12.50
2009,10,05,01,25,12.50
2009,10,05,01,26,12.50
2009,10,05,01,27,12.50
2009,10,05,01,28,12.50
2009,10,05,01,29,12.50
2009,10,05,01,30,12.50
2009,10,05,01,31,12.50
2009,10,05,01,32,12.50
2009,10,05,01,33,12.40
2009,10,05,01,34,12.40
2009,10,05,01,35,12.30
2009,10,05,01,36,12.30
2009,10,05,01,37,12.30
2009,10,05,01,38,12.20
2009,10,05,01,39,12.20
2009,10,05,01,40,12.10
2009,10,05,01,41,12.00
2009,10,05,01,42,12.00
2009,10,05,01,43,12.00
2009,10,05,01,44,12.00
2009,10,05,01,45,12.00
2009,10,05,01,46,12.00
2009,10,05,01,47,12.00
2009,10,05,01,48,12.00
2009,10,05,01,49,12.10
2009,10,05,01,50,12.10
2009,10,05,01,51,12.10
2009,10,05,01,52,12.00
2009,10,05,01,53,12.10
2009,10,05,01,54,12.20
2009,10,05,01,55,12.20
2009,10,05,01,56,12.20
2009,10,05,01,57,12.20
2009,10,05,01,58,12.20
2009,10,05,01,59,12.20
2009,10,05,02,00,12.20
2009,10,05,02,01,12.10
2009,10,05,02,02,12.20
2009,10,05,02,03,12.20
2009,10,05,02,04,12.30
2009,10,05,02,05,12.30
2009,10,05,02,06,12.30
2009,10,05,02,07,12.30
2009,10,05,02,08,12.30
2009,10,05,02,09,12.20
2009,10,05,02,10,12.30
2009,10,05,02,11,12.30
2009,10,05,02,12,12.30
2009,10,05,02,13,12.30
2009,10,05,02,14,12.40
2009,10,05,02,15,12.40
2009,10,05,02,16,12.50
2009,10,05,02,17,12.50
2009,10,05,02,18,12.50
2009,10,05,02,19,12.50
2009,10,05,02,20,12.60
2009,10,05,02,21,12.70
2009,10,05,02,22,12.70
2009,10,05,02,23,12.80
2009,10,05,02,24,12.80
2009,10,05,02,25,12.80
2009,10,05,02,26,12.80
2009,10,05,02,27,12.80
2009,10,05,02,28,12.80
2009,10,05,02,29,12.80
2009,10,05,02,30,12.80
2009,10,05,02,31,12.80
2009,10,05,02,32,12.80
2009,10,05,02,33,12.80
2009,10,05,02,34,12.80
2009,10,05,02,35,12.80
2009,10,05,02,36,12.80
2009,10,05,02,37,12.80
2009,10,05,02,38,12.80
2009,10,05,02,39,12.80
2009,10,05,02,40,12.80
2009,10,05,02,41,12.80
2009,10,05,02,42,12.80
2009,10,05,02,43,12.90
2009,10,05,02,44,12.90
2009,10,05,02,45,12.90
2009,10,05,02,46,12.90
2009,10,05,02,47,12.90
2009,10,05,02,48,12.80
2009,10,05,02,49,12.80
2009,10,05,02,50,12.70
2009,10,05,02,51,12.60
2009,10,05,02,52,12.50
2009,10,05,02,53,12.50
2009,10,05,02,54,12.40
2009,10,05,02,55,12.30
2009,10,05,02,56,12.30
2009,10,05,02,57,12.30
2009,10,05,02,58,12.20
2009,10,05,02,59,12.10
2009,10,05,03,00,12.00
2009,10,05,03,01,12.00
2009,10,05,03,02,11.90
2009,10,05,03,03,11.80
2009,10,05,03,04,11.80
2009,10,05,03,05,11.80
2009,10,05,03,06,11.80
2009,10,05,03,07,11.80
2009,10,05,03,08,11.80
2009,10,05,03,09,11.80
2009,10,05,03,10,11.80
2009,10,05,03,11,11.80
2009,10,05,03,12,11.80
2009,10,05,03,13,11.80
2009,10,05,03,14,11.80
2009,10,05,03,15,11.80
2009,10,05,03,16,11.90
2009,10,05,03,17,11.90
2009,10,05,03,18,11.90
2009,10,05,03,19,11.90
2009,10,05,03,20,11.90
2009,10,05,03,21,11.90
2009,10,05,03,22,11.90
2009,10,05,03,23,11.80
2009,10,05,03,24,11.80
2009,10,05,03,25,11.80
2009,10,05,03,26,11.80
2009,10,05,03,27,11.80
2009,10,05,03,28,11.80
2009,10,05,03,29,11.80
2009,10,05,03,30,11.80
2009,10,05,03,31,11.80
2009,10,05,03,32,11.80
2009,10,05,03,33,11.80
2009,10,05,03,34,11.80
2009,10,05,03,35,11.90
2009,10,05,03,36,11.90
2009,10,05,03,37,11.90
2009,10,05,03,38,11.90
2009,10,05,03,39,11.90
2009,10,05,03,40,11.80
2009,10,05,03,41,11.90
2009,10,05,03,42,11.90
2009,10,05,03,43,11.90
2009,10,05,03,44,11.90
2009,10,05,03,45,11.90
2009,10,05,03,46,12.00
2009,10,05,03,47,12.00
2009,10,05,03,48,12.10
2009,10,05,03,49,12.10
2009,10,05,03,50,12.10
2009,10,05,03,51,12.10
2009,10,05,03,52,12.10
2009,10,05,03,53,12.10
2009,10,05,03,54,12.00
2009,10,05,03,55,12.00
2009,10,05,03,56,11.90
2009,10,05,03,57,11.90
2009,10,05,03,58,11.90
2009,10,05,03,59,11.90
2009,10,05,04,00,11.90
2009,10,05,04,01,11.90
2009,10,05,04,02,11.90
2009,10,05,04,03,12.00
2009,10,05,04,04,12.00
2009,10,05,04,05,12.00
2009,10,05,04,06,12.10
2009,10,05,04,07,12.10
2009,10,05,04,08,12.10
2009,10,05,04,09,12.20
2009,10,05,04,10,12.20
2009,10,05,04,11,12.20
2009,10,05,04,12,12.20
2009,10,05,04,13,12.30
2009,10,05,04,14,12.30
2009,10,05,04,15,12.30
2009,10,05,04,16,12.30
2009,10,05,04,17,12.20
2009,10,05,04,18,12.20
2009,10,05,04,19,12.20
2009,10,05,04,20,12.20
2009,10,05,04,21,12.20
2009,10,05,04,22,12.20
2009,10,05,04,23,12.30
2009,10,05,04,24,12.30
2009,10,05,04,25,12.30
2009,10,05,04,26,12.30
2009,10,05,04,27,12.30
2009,10,05,04,28,12.30
2009,10,05,04,29,12.30
2009,10,05,04,30,12.30
2009,10,05,04,31,12.30
2009,10,05,04,32,12.20
2009,10,05,04,33,12.20
2009,10,05,04,34,12.20
2009,10,05,04,35,12.10
2009,10,05,04,36,12.10
2009,10,05,04,37,12.10
2009,10,05,04,38,12.10
2009,10,05,04,39,12.10
2009,10,05,04,40,12.10
2009,10,05,04,41,12.20
2009,10,05,04,42,12.20
2009,10,05,04,43,12.20
2009,10,05,04,44,12.20
2009,10,05,04,45,12.20
2009,10,05,04,46,12.20
2009,10,05,04,47,12.20
2009,10,05,04,48,12.20
2009,10,05,04,49,12.20
2009,10,05,04,50,12.10
2009,10,05,04,51,12.10
2009,10,05,04,52,12.10
2009,10,05,04,53,12.10
2009,10,05,04,54,12.10
2009,10,05,04,55,12.10
2009,10,05,04,56,12.10
2009,10,05,04,57,12.00
2009,10,05,04,58,12.00
2009,10,05,04,59,12.00
2009,10,05,05,00,12.00
2009,10,05,05,01,12.00
2009,10,05,05,02,11.90
2009,10,05,05,03,11.90
2009,10,05,05,04,11.90
2009,10,05,05,05,11.90
2009,10,05,05,06,11.80
2009,10,05,05,07,11.80
2009,10,05,05,08,11.80
2009,10,05,05,09,11.80
2009,10,05,05,10,11.80
2009,10,05,05,11,11.70
2009,10,05,05,12,11.70
2009,10,05,05,13,11.70
2009,10,05,05,14,11.60
2009,10,05,05,15,11.70
2009,10,05,05,16,11.70
2009,10,05,05,17,11.70
2009,10,05,05,18,11.70
2009,10,05,05,19,11.70
2009,10,05,05,20,11.70
2009,10,05,05,21,11.70
2009,10,05,05,22,11.70
2009,10,05,05,23,11.70
2009,10,05,05,24,11.70
2009,10,05,05,25,11.70
2009,10,05,05,26,11.70
2009,10,05,05,27,11.70
2009,10,05,05,28,11.70
2009,10,05,05,29,11.70
2009,10,05,05,30,11.70
2009,10,05,05,31,11.80
2009,10,05,05,32,11.80
2009,10,05,05,33,11.80
2009,10,05,05,34,11.80
2009,10,05,05,35,11.70
2009,10,05,05,36,11.70
2009,10,05,05,37,11.70
2009,10,05,05,38,11.70
2009,10,05,05,39,11.70
2009,10,05,05,40,11.70
2009,10,05,05,41,11.70
2009,10,05,05,42,11.70
2009,10,05,05,43,11.70
2009,10,05,05,44,11.70
2009,10,05,05,45,11.70
2009,10,05,05,46,11.70
2009,10,05,05,47,11.60
2009,10,05,05,48,11.60
2009,10,05,05,49,11.40
2009,10,05,05,50,11.30
2009,10,05,05,51,11.20
2009,10,05,05,52,11.10
2009,10,05,05,53,10.90
2009,10,05,05,54,10.90
2009,10,05,05,55,10.70
2009,10,05,05,56,10.60
2009,10,05,05,57,10.50
2009,10,05,05,58,10.40
2009,10,05,05,59,10.30
2009,10,05,06,00,10.30
2009,10,05,06,01,10.20
2009,10,05,06,02,10.20
2009,10,05,06,03,10.20
2009,10,05,06,04,10.10
2009,10,05,06,05,10.10
2009,10,05,06,06,10.00
2009,10,05,06,07,9.90
2009,10,05,06,08,9.90
2009,10,05,06,09,9.90
2009,10,05,06,10,9.80
2009,10,05,06,11,9.80
2009,10,05,06,12,9.70
2009,10,05,06,13,9.70
2009,10,05,06,14,9.70
2009,10,05,06,15,9.60
2009,10,05,06,16,9.60
2009,10,05,06,17,9.50
2009,10,05,06,18,9.50
2009,10,05,06,19,9.40
2009,10,05,06,20,9.30
2009,10,05,06,21,9.30
2009,10,05,06,22,9.20
2009,10,05,06,23,9.20
2009,10,05,06,24,9.10
2009,10,05,06,25,9.10
2009,10,05,06,26,9.00
2009,10,05,06,27,9.00
2009,10,05,06,28,8.90
2009,10,05,06,29,8.90
2009,10,05,06,30,8.80
2009,10,05,06,31,8.80
2009,10,05,06,32,8.70
2009,10,05,06,33,8.70
2009,10,05,06,34,8.70
2009,10,05,06,35,8.70
2009,10,05,06,36,8.60
2009,10,05,06,37,8.60
2009,10,05,06,38,8.60
2009,10,05,06,39,8.60
2009,10,05,06,40,8.50
2009,10,05,06,41,8.50
2009,10,05,06,42,8.50
2009,10,05,06,43,8.40
2009,10,05,06,44,8.40
2009,10,05,06,45,8.40
2009,10,05,06,46,8.30
2009,10,05,06,47,8.30
2009,10,05,06,48,8.30
2009,10,05,06,49,8.20
2009,10,05,06,50,8.20
2009,10,05,06,51,8.20
2009,10,05,06,52,8.20
2009,10,05,06,53,8.10
2009,10,05,06,54,8.10
2009,10,05,06,55,8.10
2009,10,05,06,56,8.00
2009,10,05,06,57,8.00
2009,10,05,06,58,8.00
2009,10,05,06,59,7.90
2009,10,05,07,00,7.90
2009,10,05,07,01,7.80
2009,10,05,07,02,7.80
2009,10,05,07,03,7.80
2009,10,05,07,04,7.80
2009,10,05,07,05,7.80
2009,10,05,07,06,7.80
2009,10,05,07,07,7.80
2009,10,05,07,08,7.70
2009,10,05,07,09,7.70
2009,10,05,07,10,7.70
2009,10,05,07,11,7.60
2009,10,05,07,12,7.60
2009,10,05,07,13,7.60
2009,10,05,07,14,7.50
2009,10,05,07,15,7.50
2009,10,05,07,16,7.40
2009,10,05,07,17,7.40
2009,10,05,07,18,7.40
2009,10,05,07,19,7.30
2009,10,05,07,20,7.30
2009,10,05,07,21,7.30
2009,10,05,07,22,7.30
2009,10,05,07,23,7.30
2009,10,05,07,24,7.30
2009,10,05,07,25,7.20
2009,10,05,07,26,7.20
2009,10,05,07,27,7.20
2009,10,05,07,28,7.20
2009,10,05,07,29,7.10
2009,10,05,07,30,7.10
2009,10,05,07,31,7.10
2009,10,05,07,32,7.00
2009,10,05,07,33,7.00
2009,10,05,07,34,7.00
2009,10,05,07,35,6.90
2009,10,05,07,36,6.90
2009,10,05,07,37,6.80
2009,10,05,07,38,6.80
2009,10,05,07,39,6.80
2009,10,05,07,40,6.80
2009,10,05,07,41,6.80
2009,10,05,07,42,6.70
2009,10,05,07,43,6.70
2009,10,05,07,44,6.70
2009,10,05,07,45,6.70
2009,10,05,07,46,6.60
2009,10,05,07,47,6.60
2009,10,05,07,48,6.60
2009,10,05,07,49,6.60
2009,10,05,07,50,6.60
2009,10,05,07,51,6.60
2009,10,05,07,52,6.60
2009,10,05,07,53,6.60
2009,10,05,07,54,6.60
2009,10,05,07,55,6.60
2009,10,05,07,56,6.60
2009,10,05,07,57,6.60
2009,10,05,07,58,6.60
2009,10,05,07,59,6.60
2009,10,05,08,00,6.60
2009,10,05,08,01,6.60
2009,10,05,08,02,6.60
2009,10,05,08,03,6.60
2009,10,05,08,04,6.60
2009,10,05,08,05,6.60
2009,10,05,08,06,6.50
2009,10,05,08,07,6.50
2009,10,05,08,08,6.60
2009,10,05,08,09,6.60
2009,10,05,08,10,6.60
2009,10,05,08,11,6.60
2009,10,05,08,12,6.60
2009,10,05,08,13,6.60
2009,10,05,08,14,6.60
2009,10,05,08,15,6.60
2009,10,05,08,16,6.70
2009,10,05,08,17,6.70
2009,10,05,08,18,6.70
2009,10,05,08,19,6.80
2009,10,05,08,20,6.80
2009,10,05,08,21,6.80
2009,10,05,08,22,6.90
2009,10,05,08,23,6.90
2009,10,05,08,24,7.00
2009,10,05,08,25,7.00
2009,10,05,08,26,7.10
2009,10,05,08,27,7.10
2009,10,05,08,28,7.20
2009,10,05,08,29,7.20
2009,10,05,08,30,7.30
2009,10,05,08,31,7.30
2009,10,05,08,32,7.30
2009,10,05,08,33,7.40
2009,10,05,08,34,7.50
2009,10,05,08,35,7.50
2009,10,05,08,36,7.60
2009,10,05,08,37,7.70
2009,10,05,08,38,7.80
2009,10,05,08,39,7.80
2009,10,05,08,40,7.90
2009,10,05,08,41,7.90
2009,10,05,08,42,8.00
2009,10,05,08,43,8.00
2009,10,05,08,44,8.10
2009,10,05,08,45,8.20
2009,10,05,08,46,8.20
2009,10,05,08,47,8.20
2009,10,05,08,48,8.30
2009,10,05,08,49,8.30
2009,10,05,08,50,8.30
2009,10,05,08,51,8.40
2009,10,05,08,52,8.50
2009,10,05,08,53,8.60
2009,10,05,08,54,8.70
2009,10,05,08,55,8.80
2009,10,05,08,56,8.90
2009,10,05,08,57,9.00
2009,10,05,08,58,9.00
2009,10,05,08,59,9.20
2009,10,05,09,00,9.20
2009,10,05,09,01,9.30
2009,10,05,09,02,9.40
2009,10,05,09,03,9.50
2009,10,05,09,04,9.50
2009,10,05,09,05,9.60
2009,10,05,09,06,9.60
2009,10,05,09,07,9.70
2009,10,05,09,08,9.70
2009,10,05,09,09,9.80
2009,10,05,09,10,9.80
2009,10,05,09,11,9.90
2009,10,05,09,12,9.90
2009,10,05,09,13,10.10
2009,10,05,09,14,10.10
2009,10,05,09,15,10.20
2009,10,05,09,16,10.30
2009,10,05,09,17,10.40
2009,10,05,09,18,10.40
2009,10,05,09,19,10.60
2009,10,05,09,20,10.60
2009,10,05,09,21,10.70
2009,10,05,09,22,10.80
2009,10,05,09,23,10.90
2009,10,05,09,24,11.00
2009,10,05,09,25,11.10
2009,10,05,09,26,11.20
2009,10,05,09,27,11.30
2009,10,05,09,28,11.40
2009,10,05,09,29,11.40
2009,10,05,09,30,11.60
2009,10,05,09,31,11.60
2009,10,05,09,32,11.70
2009,10,05,09,33,11.80
2009,10,05,09,34,11.80
2009,10,05,09,35,12.00
2009,10,05,09,36,12.20
2009,10,05,09,37,12.30
2009,10,05,09,38,12.50
2009,10,05,09,39,12.70
2009,10,05,09,40,12.80
2009,10,05,09,41,13.00
2009,10,05,09,42,13.10
2009,10,05,09,43,13.20
2009,10,05,09,44,13.30
2009,10,05,09,45,13.30
2009,10,05,09,46,13.50
2009,10,05,09,47,13.60
2009,10,05,09,48,13.70
2009,10,05,09,49,13.70
2009,10,05,09,50,13.70
2009,10,05,09,51,13.80
2009,10,05,09,52,13.80
2009,10,05,09,53,13.90
2009,10,05,09,54,13.90
2009,10,05,09,55,14.00
2009,10,05,09,56,14.10
2009,10,05,09,57,14.30
2009,10,05,09,58,14.50
2009,10,05,09,59,14.50
2009,10,05,10,00,14.60
2009,10,05,10,01,14.70
2009,10,05,10,02,14.90
2009,10,05,10,03,14.90
2009,10,05,10,04,15.00
2009,10,05,10,05,15.00
2009,10,05,10,06,15.10
2009,10,05,10,07,15.10
2009,10,05,10,08,15.20
2009,10,05,10,09,15.20
2009,10,05,10,10,15.30
2009,10,05,10,11,15.30
2009,10,05,10,12,15.30
2009,10,05,10,13,15.30
2009,10,05,10,14,15.30
2009,10,05,10,15,15.30
2009,10,05,10,16,15.40
2009,10,05,10,17,15.40
2009,10,05,10,18,15.50
2009,10,05,10,19,15.50
2009,10,05,10,20,15.50
2009,10,05,10,21,15.50
2009,10,05,10,22,15.40
2009,10,05,10,23,15.40
2009,10,05,10,24,15.40
2009,10,05,10,25,15.40
2009,10,05,10,26,15.40
2009,10,05,10,27,15.40
2009,10,05,10,28,15.40
2009,10,05,10,29,15.50
2009,10,05,10,30,15.50
2009,10,05,10,31,15.60
2009,10,05,10,32,15.60
2009,10,05,10,33,15.60
2009,10,05,10,34,15.70
2009,10,05,10,35,15.70
2009,10,05,10,36,15.80
2009,10,05,10,37,15.80
2009,10,05,10,38,15.80
2009,10,05,10,39,15.80
2009,10,05,10,40,15.80
2009,10,05,10,41,15.90
2009,10,05,10,42,15.90
2009,10,05,10,43,16.00
2009,10,05,10,44,16.10
2009,10,05,10,45,16.10
2009,10,05,10,46,16.10
2009,10,05,10,47,16.10
2009,10,05,10,48,16.10
2009,10,05,10,49,16.10
2009,10,05,10,50,16.10
2009,10,05,10,51,16.10
2009,10,05,10,52,16.10
2009,10,05,10,53,16.10
2009,10,05,10,54,16.10
2009,10,05,10,55,16.10
2009,10,05,10,56,16.10
2009,10,05,10,57,16.10
2009,10,05,10,58,16.10
2009,10,05,10,59,16.10
2009,10,05,11,00,16.10
2009,10,05,11,01,16.00
2009,10,05,11,02,15.90
2009,10,05,11,03,15.80
2009,10,05,11,04,15.80
2009,10,05,11,05,15.80
2009,10,05,11,06,15.80
2009,10,05,11,07,15.90
2009,10,05,11,08,15.90
2009,10,05,11,09,15.90
2009,10,05,11,10,15.90
2009,10,05,11,11,15.90
2009,10,05,11,12,15.90
2009,10,05,11,13,15.90
2009,10,05,11,14,15.80
2009,10,05,11,15,15.80
2009,10,05,11,16,15.70
2009,10,05,11,17,15.70
2009,10,05,11,18,15.80
2009,10,05,11,19,15.80
2009,10,05,11,20,15.90
2009,10,05,11,21,15.90
2009,10,05,11,22,16.00
2009,10,05,11,23,16.10
2009,10,05,11,24,16.10
2009,10,05,11,25,16.10
2009,10,05,11,26,16.10
2009,10,05,11,27,16.10
2009,10,05,11,28,16.10
2009,10,05,11,29,16.10
2009,10,05,11,30,16.10
2009,10,05,11,31,16.20
2009,10,05,11,32,16.20
2009,10,05,11,33,16.30
2009,10,05,11,34,16.30
2009,10,05,11,35,16.30
2009,10,05,11,36,16.40
2009,10,05,11,37,16.60
2009,10,05,11,38,16.60
2009,10,05,11,39,16.70
2009,10,05,11,40,16.70
2009,10,05,11,41,16.70
2009,10,05,11,42,16.70
2009,10,05,11,43,16.70
2009,10,05,11,44,16.80
2009,10,05,11,45,16.80
2009,10,05,11,46,16.80
2009,10,05,11,47,16.80
2009,10,05,11,48,16.80
2009,10,05,11,49,16.80
2009,10,05,11,50,16.70
2009,10,05,11,51,16.70
2009,10,05,11,52,16.70
2009,10,05,11,53,16.80
2009,10,05,11,54,16.80
2009,10,05,11,55,16.80
2009,10,05,11,56,16.80
2009,10,05,11,57,16.90
2009,10,05,11,58,17.00
2009,10,05,11,59,16.90
2009,10,05,12,00,16.90
2009,10,05,12,01,16.90
2009,10,05,12,02,17.00
2009,10,05,12,03,17.10
2009,10,05,12,04,17.10
2009,10,05,12,05,17.20
2009,10,05,12,06,17.20
2009,10,05,12,07,17.20
2009,10,05,12,08,17.20
2009,10,05,12,09,17.30
2009,10,05,12,10,17.30
2009,10,05,12,11,17.30
2009,10,05,12,12,17.30
2009,10,05,12,13,17.30
2009,10,05,12,14,17.30
2009,10,05,12,15,17.40
2009,10,05,12,16,17.40
2009,10,05,12,17,17.40
2009,10,05,12,18,17.30
2009,10,05,12,19,17.30
2009,10,05,12,20,17.20
2009,10,05,12,21,17.20
2009,10,05,12,22,17.20
2009,10,05,12,23,17.30
2009,10,05,12,24,17.20
2009,10,05,12,25,17.20
2009,10,05,12,26,17.20
2009,10,05,12,27,17.10
2009,10,05,12,28,17.10
2009,10,05,12,29,17.10
2009,10,05,12,30,17.00
2009,10,05,12,31,16.90
2009,10,05,12,32,16.80
2009,10,05,12,33,16.80
2009,10,05,12,34,16.80
2009,10,05,12,35,16.90
2009,10,05,12,36,17.00
2009,10,05,12,37,17.00
2009,10,05,12,38,17.00
2009,10,05,12,39,17.00
2009,10,05,12,40,16.90
2009,10,05,12,41,16.70
2009,10,05,12,42,16.70
2009,10,05,12,43,16.80
2009,10,05,12,44,16.80
2009,10,05,12,45,16.90
2009,10,05,12,46,16.90
2009,10,05,12,47,16.90
2009,10,05,12,48,16.90
2009,10,05,12,49,17.00
2009,10,05,12,50,17.00
2009,10,05,12,51,17.00
2009,10,05,12,52,17.00
2009,10,05,12,53,17.00
2009,10,05,12,54,17.00
2009,10,05,12,55,16.90
2009,10,05,12,56,16.80
2009,10,05,12,57,16.70
2009,10,05,12,58,16.70
2009,10,05,12,59,16.70
2009,10,05,13,00,16.70
2009,10,05,13,01,16.80
2009,10,05,13,02,16.80
2009,10,05,13,03,16.80
2009,10,05,13,04,16.80
2009,10,05,13,05,16.70
2009,10,05,13,06,16.70
2009,10,05,13,07,16.80
2009,10,05,13,08,16.90
2009,10,05,13,09,16.90
2009,10,05,13,10,16.90
2009,10,05,13,11,16.90
2009,10,05,13,12,16.80
2009,10,05,13,13,16.90
2009,10,05,13,14,17.00
2009,10,05,13,15,17.00
2009,10,05,13,16,17.10
2009,10,05,13,17,17.20
2009,10,05,13,18,17.30
2009,10,05,13,19,17.30
2009,10,05,13,20,17.40
2009,10,05,13,21,17.50
2009,10,05,13,22,17.60
2009,10,05,13,23,17.60
2009,10,05,13,24,17.70
2009,10,05,13,25,17.70
2009,10,05,13,26,17.60
2009,10,05,13,27,17.60
2009,10,05,13,28,17.60
2009,10,05,13,29,17.60
2009,10,05,13,30,17.50
2009,10,05,13,31,17.50
2009,10,05,13,32,17.60
2009,10,05,13,33,17.60
2009,10,05,13,34,17.70
2009,10,05,13,35,17.80
2009,10,05,13,36,17.70
2009,10,05,13,37,17.70
2009,10,05,13,38,17.50
2009,10,05,13,39,17.50
2009,10,05,13,40,17.30
2009,10,05,13,41,17.30
2009,10,05,13,42,17.20
2009,10,05,13,43,17.10
2009,10,05,13,44,17.00
2009,10,05,13,45,16.90
2009,10,05,13,46,16.90
2009,10,05,13,47,16.90
2009,10,05,13,48,16.80
2009,10,05,13,49,16.90
2009,10,05,13,50,16.90
2009,10,05,13,51,16.90
2009,10,05,13,52,17.00
2009,10,05,13,53,17.10
2009,10,05,13,54,17.20
2009,10,05,13,55,17.20
2009,10,05,13,56,17.30
2009,10,05,13,57,17.30
2009,10,05,13,58,17.30
2009,10,05,13,59,17.30
2009,10,05,14,00,17.30
2009,10,05,14,01,17.30
2009,10,05,14,02,17.30
2009,10,05,14,03,17.30
2009,10,05,14,04,17.30
2009,10,05,14,05,17.40
2009,10,05,14,06,17.50
2009,10,05,14,07,17.50
2009,10,05,14,08,17.50
2009,10,05,14,09,17.50
2009,10,05,14,10,17.30
2009,10,05,14,11,17.30
2009,10,05,14,12,17.40
2009,10,05,14,13,17.50
2009,10,05,14,14,17.50
2009,10,05,14,15,17.50
2009,10,05,14,16,17.50
2009,10,05,14,17,17.50
2009,10,05,14,18,17.50
2009,10,05,14,19,17.50
2009,10,05,14,20,17.50
2009,10,05,14,21,17.50
2009,10,05,14,22,17.60
2009,10,05,14,23,17.60
2009,10,05,14,24,17.60
2009,10,05,14,25,17.70
2009,10,05,14,26,17.70
2009,10,05,14,27,17.70
2009,10,05,14,28,17.70
2009,10,05,14,29,17.70
2009,10,05,14,30,17.70
2009,10,05,14,31,17.70
2009,10,05,14,32,17.70
2009,10,05,14,33,17.80
2009,10,05,14,34,17.80
2009,10,05,14,35,17.80
2009,10,05,14,36,17.80
2009,10,05,14,37,17.80
2009,10,05,14,38,17.90
2009,10,05,14,39,18.00
2009,10,05,14,40,18.10
2009,10,05,14,41,18.20
2009,10,05,14,42,18.20
2009,10,05,14,43,18.20
2009,10,05,14,44,18.20
2009,10,05,14,45,18.20
2009,10,05,14,46,18.20
2009,10,05,14,47,18.20
2009,10,05,14,48,18.20
2009,10,05,14,49,18.20
2009,10,05,14,50,18.20
2009,10,05,14,51,18.20
2009,10,05,14,52,18.10
2009,10,05,14,53,18.10
2009,10,05,14,54,18.20
2009,10,05,14,55,18.20
2009,10,05,14,56,18.20
2009,10,05,14,57,18.20
2009,10,05,14,58,18.20
2009,10,05,14,59,18.20
2009,10,05,15,00,18.20
2009,10,05,15,01,18.20
2009,10,05,15,02,18.10
2009,10,05,15,03,18.00
2009,10,05,15,04,18.00
2009,10,05,15,05,18.10
2009,10,05,15,06,18.10
2009,10,05,15,07,18.20
2009,10,05,15,08,18.20
2009,10,05,15,09,18.20
2009,10,05,15,10,18.20
2009,10,05,15,11,18.20
2009,10,05,15,12,18.20
2009,10,05,15,13,18.10
2009,10,05,15,14,18.10
2009,10,05,15,15,18.10
2009,10,05,15,16,18.00
2009,10,05,15,17,17.90
2009,10,05,15,18,17.90
2009,10,05,15,19,17.90
2009,10,05,15,20,17.80
2009,10,05,15,21,17.70
2009,10,05,15,22,17.70
2009,10,05,15,23,17.60
2009,10,05,15,24,17.60
2009,10,05,15,25,17.60
2009,10,05,15,26,17.60
2009,10,05,15,27,17.70
2009,10,05,15,28,17.70
2009,10,05,15,29,17.70
2009,10,05,15,30,17.60
2009,10,05,15,31,17.40
2009,10,05,15,32,17.30
2009,10,05,15,33,17.30
2009,10,05,15,34,17.30
2009,10,05,15,35,17.20
2009,10,05,15,36,17.20
2009,10,05,15,37,17.20
2009,10,05,15,38,17.20
2009,10,05,15,39,17.30
2009,10,05,15,40,17.40
2009,10,05,15,41,17.50
2009,10,05,15,42,17.60
2009,10,05,15,43,17.70
2009,10,05,15,44,17.80
2009,10,05,15,45,17.90
2009,10,05,15,46,17.90
2009,10,05,15,47,17.90
2009,10,05,15,48,17.90
2009,10,05,15,49,17.90
2009,10,05,15,50,17.80
2009,10,05,15,51,17.80
2009,10,05,15,52,17.70
2009,10,05,15,53,17.60
2009,10,05,15,54,17.60
2009,10,05,15,55,17.60
2009,10,05,15,56,17.70
2009,10,05,15,57,17.60
2009,10,05,15,58,17.50
2009,10,05,15,59,17.50
2009,10,05,16,00,17.50
2009,10,05,16,01,17.50
2009,10,05,16,02,17.50
2009,10,05,16,03,17.40
2009,10,05,16,04,17.40
2009,10,05,16,05,17.30
2009,10,05,16,06,17.30
2009,10,05,16,07,17.20
2009,10,05,16,08,17.30
2009,10,05,16,09,17.30
2009,10,05,16,10,17.30
2009,10,05,16,11,17.30
2009,10,05,16,12,17.30
2009,10,05,16,13,17.30
2009,10,05,16,14,17.30
2009,10,05,16,15,17.30
2009,10,05,16,16,17.30
2009,10,05,16,17,17.30
2009,10,05,16,18,17.40
2009,10,05,16,19,17.40
2009,10,05,16,20,17.40
2009,10,05,16,21,17.40
2009,10,05,16,22,17.40
2009,10,05,16,23,17.30
2009,10,05,16,24,17.30
2009,10,05,16,25,17.30
2009,10,05,16,26,17.30
2009,10,05,16,27,17.30
2009,10,05,16,28,17.30
2009,10,05,16,29,17.30
2009,10,05,16,30,17.30
2009,10,05,16,31,17.30
2009,10,05,16,32,17.30
2009,10,05,16,33,17.30
2009,10,05,16,34,17.30
2009,10,05,16,35,17.30
2009,10,05,16,36,17.30
2009,10,05,16,37,17.30
2009,10,05,16,38,17.30
2009,10,05,16,39,17.30
2009,10,05,16,40,17.40
2009,10,05,16,41,17.40
2009,10,05,16,42,17.40
2009,10,05,16,43,17.40
2009,10,05,16,44,17.40
2009,10,05,16,45,17.40
2009,10,05,16,46,17.40
2009,10,05,16,47,17.50
2009,10,05,16,48,17.50
2009,10,05,16,49,17.50
2009,10,05,16,50,17.50
2009,10,05,16,51,17.50
2009,10,05,16,52,17.40
2009,10,05,16,53,17.50
2009,10,05,16,54,17.50
2009,10,05,16,55,17.40
2009,10,05,16,56,17.40
2009,10,05,16,57,17.40
2009,10,05,16,58,17.30
2009,10,05,16,59,17.30
2009,10,05,17,00,17.40
2009,10,05,17,01,17.40
2009,10,05,17,02,17.40
2009,10,05,17,03,17.50
2009,10,05,17,04,17.60
2009,10,05,17,05,17.60
2009,10,05,17,06,17.70
2009,10,05,17,07,17.70
2009,10,05,17,08,17.70
2009,10,05,17,09,17.70
2009,10,05,17,10,17.70
2009,10,05,17,11,17.60
2009,10,05,17,12,17.60
2009,10,05,17,13,17.50
2009,10,05,17,14,17.50
2009,10,05,17,15,17.50
2009,10,05,17,16,17.50
2009,10,05,17,17,17.50
2009,10,05,17,18,17.50
2009,10,05,17,19,17.40
2009,10,05,17,20,17.40
2009,10,05,17,21,17.40
2009,10,05,17,22,17.30
2009,10,05,17,23,17.30
2009,10,05,17,24,17.30
2009,10,05,17,25,17.30
2009,10,05,17,26,17.30
2009,10,05,17,27,17.30